Location: Unspecified
(31.3442°N, 0.0000°E)
Time: 04:19:59
(UTC+00:00)

ACS3 Solar Sail - Visible Passes

Search period start: 05 April 2026 00:00
Search period end: 15 April 2026 00:00
Orbit: 874 x 980 km, 97.2° (Epoch: 29 March)

Date Brightness Start Highest point End Pass type
(mag) Time Alt. Az. Time Alt. Az. Time Alt. Az.
5 Apr 4.3 01:56:28 10° N 01:56:56 12° N 01:56:56 12° N visible
6 Apr 4.2 02:06:47 10° N 02:07:17 12° NNW 02:07:17 12° NNW visible
7 Apr 4.2 02:17:08 10° NNW 02:17:34 12° NNW 02:17:34 12° NNW visible
8 Apr 4.6 00:44:09 10° NNE 00:44:12 10° NNE 00:44:12 10° NNE visible
8 Apr 4.2 02:27:30 10° NNW 02:27:47 11° NNW 02:27:47 11° NNW visible
9 Apr 4.4 00:53:56 10° NNE 00:54:22 12° NNE 00:54:22 12° NNE visible
10 Apr 4.3 01:03:44 10° NNE 01:04:28 14° NNE 01:04:28 14° NNE visible
11 Apr 4.2 01:13:31 10° N 01:14:31 15° NNE 01:14:31 15° NNE visible
12 Apr 4.1 01:23:18 10° N 01:24:30 17° N 01:24:30 17° N visible
13 Apr 4.0 01:33:05 10° N 01:34:26 18° N 01:34:26 18° N visible
14 Apr 3.9 01:42:51 10° N 01:44:18 18° N 01:44:18 18° N visible
